Regional Weather Roundup
Issued by NWS

Home | Current Version | Previous Version | Text Only | Print | Product List | Glossary On
Versions: 1 2 3 4 5 6 7 8 9 10 11 12 13 14 15 16 17 18 19 20 21 22 23 24 25 26 27 28 29 30 31 32 33 34 35 36 37 38 39 40 41 42 43 44 45 46 47 48 49 50
065
ASUS45 KBOI 231210
RWRID

IDAHO REGIONAL WEATHER ROUNDUP
NATIONAL WEATHER SERVICE BOISE ID
600 AM MDT THU MAR 23 2017

NOTE: "FAIR" INDICATES FEW OR NO CLOUDS BELOW 12000 FEET
WITH NO SIGNIFICANT WEATHER AND/OR OBSTRUCTIONS TO VISIBILITY

IDZ012-014-231300-
SOUTHWEST IDAHO


CITY           SKY/WX    TMP DP  RH WIND       PRES   REMARKS
BOISE          CLEAR     38  33  82 NW10      29.95R WCI  31
CALDWELL       CLEAR     39  33  79 W16       29.99R WCI  30
MOUNTAIN HOME  PTCLDY    38  38 100 NW21      29.92R WCI  28
$$

IDZ016-017-231300-
SOUTHCENTRAL IDAHO


CITY           SKY/WX    TMP DP  RH WIND       PRES   REMARKS
BURLEY         CLOUDY    39  35  86 W16G25    29.82S WCI  30
JEROME         MOCLDY    36  34  92 W18       29.84R WCI  26
TWIN FALLS     MOCLDY    37  31  78 SW26G36   29.84R WCI  25
$$

IDZ019>023-231300-
SOUTHEAST IDAHO


CITY           SKY/WX    TMP DP  RH WIND       PRES   REMARKS
IDAHO FALLS    CLOUDY    35  35 100 CALM      29.79S
POCATELLO      CLOUDY    39  36  89 SW14      29.80R WCI  31
REXBURG        CLOUDY    34  33  96 CALM      29.78F
$$

IDZ006-010-011-018-031-032-231300-
CENTRAL IDAHO MOUNTAINS


CITY           SKY/WX    TMP DP  RH WIND       PRES   REMARKS
MCCALL         CLOUDY    34  24  67 N9        29.94R WCI  27
HAILEY         PTCLDY    36  27  69 NW9       29.83S WCI  29
STANLEY          N/A     24  21  88 CALM      29.91R
SALMON         CLOUDY    39  28  65 CALM      29.91R
CHALLIS        CLOUDY    35  26  69 NW3       29.89R
$$

IDZ002-004-006-007-026-231300-
NORTHERN IDAHO


CITY           SKY/WX    TMP DP  RH WIND       PRES   REMARKS
LEWISTON       FOG       37  35  92 NW3       30.05R VSB 1/2
LOWELL           N/A     40  38  93 CALM      30.06R
COEUR D`ALENE  NOT AVBL
MULLAN PASS    LGT SNOW  27  27 100 VRB7      29.90S FOG     WCI  19
$$




USA.gov is the U.S. government's official web portal to all federal, state and local government web resources and services.